Temperature
24 23 23 23 24 26 28 28 29 29 30 30 31 31 30 28 26 23 22 22 21 21 22 21 20 20 20 20 20 20 20 19 19 19 19 19 19 19 19 19 19 19 19 19 19 19 19 19 19
24 24 24 24 25 26 27 28 29 30 30 30 30 30 29 28 26 23 23 22 21 21 21 21 21 20 20 20 20 20 19 19 19 19 19 19 19 19 19 19 19 19 19 19 19 19 19 19 19
24 24 25 26 26 27 28 29 30 30 30 30 30 29 28 27 26 24 23 22 21 20 21 21 21 20 20 20 20 19 19 19 19 19 19 19 19 19 19 19 19 19 19 19 19 19 19 19 19
25 26 27 26 28 29 30 30 31 30 30 30 30 29 27 26 26 24 23 22 21 20 20 21 21 21 20 20 20 19 19 19 19 19 19 19 19 19 19 19 19 19 18 18 18 18 18 18 19
26 27 27 27 29 30 31 31 31 31 31 30 30 28 26 25 24 23 23 22 21 20 20 21 21 21 20 20 19 19 19 19 19 19 19 19 19 19 19 18 19 19 18 18 18 18 18 18 18
27 28 25 25 29 30 31 31 31 31 31 31 30 29 26 25 24 23 23 23 22 20 20 21 21 20 20 20 19 19 19 19 19 19 19 19 19 19 19 18 18 18 18 18 18 18 18 18 18
26 26 25 26 28 30 31 31 31 31 31 31 30 29 27 25 24 24 23 23 22 21 20 21 21 20 20 20 19 19 19 19 19 19 19 19 19 19 19 18 18 19 19 18 18 18 18 18 18
26 27 27 28 28 28 31 31 31 31 31 30 30 29 27 25 24 24 23 23 23 22 21 20 20 20 20 20 20 19 19 19 19 19 19 19 18 18 18 18 19 19 19 19 18 18 18 18 19
27 27 25 26 28 27 30 31 31 30 31 30 30 28 27 25 25 24 23 23 23 22 22 21 20 19 19 19 19 19 19 19 19 19 19 19 18 18 18 18 18 19 19 19 19 18 19 19 19
28 26 25 26 28 28 30 30 30 30 30 29 29 28 27 26 25 24 24 23 23 23 22 21 21 20 19 19 19 19 19 19 19 19 19 19 18 18 17 17 18 19 19 19 19 19 19 19 18
29 28 27 28 28 29 30 30 29 29 27 28 29 28 27 26 26 25 24 24 23 23 22 22 21 20 20 19 19 19 19 19 19 18 19 19 18 18 18 18 18 19 19 19 19 19 19 18 18
29 29 29 29 28 29 29 29 28 27 27 28 29 28 28 27 26 26 25 25 24 23 23 22 21 21 20 20 19 19 19 19 19 19 18 18 18 18 18 18 18 18 18 18 18 19 19 19 19
28 28 28 28 28 28 28 29 28 27 27 28 28 28 28 27 27 26 26 26 25 24 23 23 22 21 21 20 20 19 19 19 19 19 18 18 19 19 19 19 18 18 18 18 18 18 19 19 19
28 28 28 28 29 29 28 28 27 26 27 27 28 28 27 27 27 26 26 26 26 25 24 23 23 22 21 21 20 19 19 19 19 19 19 19 19 19 19 19 19 18 18 18 19 19 19 19 19
28 28 28 29 29 29 28 27 26 25 26 27 27 26 26 26 26 26 26 26 26 25 25 24 23 23 22 21 20 20 19 19 19 19 19 19 19 19 19 19 19 19 19 19 19 19 19 19 18
29 28 27 28 28 28 27 25 25 25 26 26 26 26 25 25 25 25 25 25 25 25 25 25 24 23 23 22 21 20 20 20 19 19 19 19 19 19 19 19 19 19 19 19 19 19 18 18 18
28 26 26 25 25 25 26 24 25 25 25 26 26 25 25 25 24 24 24 24 24 25 25 25 24 23 23 22 21 21 20 20 20 19 19 19 19 19 19 19 19 19 19 18 18 18 18 18 18
26 26 26 24 23 23 24 24 25 25 25 25 25 25 24 23 23 22 22 23 23 24 24 24 24 23 23 22 21 21 20 20 20 19 19 19 19 19 19 19 18 18 18 18 18 18 18 18 18
26 26 26 26 26 25 25 25 25 25 24 24 24 24 23 22 21 20 21 21 22 22 23 23 24 23 23 22 21 21 20 20 19 19 19 19 19 19 18 18 18 18 18 18 18 17 17 17 17
26 25 25 26 26 25 25 25 25 25 24 23 23 22 21 20 20 19 19 19 19 20 21 22 22 23 22 22 22 21 20 20 19 19 19 18 18 18 18 18 18 18 17 17 17 17 17 17 17
24 24 23 23 24 25 24 24 25 25 23 22 22 21 20 19 19 18 18 18 18 19 19 20 21 22 22 22 21 21 20 19 19 18 18 18 18 18 18 17 17 17 17 17 17 17 17 17 17
22 23 23 22 22 22 23 22 23 22 21 20 20 20 19 19 18 18 17 17 17 17 17 18 19 20 21 21 21 20 20 19 19 18 18 18 18 17 17 17 17 17 17 17 17 17 16 16 17
22 23 22 22 22 21 22 22 21 19 17 17 18 19 19 18 18 17 17 16 16 16 16 17 17 18 19 20 20 20 19 19 18 18 18 17 17 17 17 17 17 17 17 16 16 16 16 16 16
23 22 23 23 22 20 21 21 18 16 16 16 17 17 18 18 17 17 16 15 15 15 16 16 16 17 17 18 19 19 18 18 18 17 17 16 16 16 16 16 16 16 16 16 16 16 16 16 16
21 20 20 20 20 19 19 18 14 15 16 16 16 17 17 16 16 15 15 14 14 14 15 15 15 16 16 16 17 17 17 17 16 16 16 15 15 16 16 16 16 16 16 16 16 16 16 16 16
20 20 18 17 18 18 19 16 13 14 14 14 15 15 15 15 15 14 14 13 13 13 14 14 14 14 15 15 15 15 15 15 15 15 15 14 14 15 15 15 15 16 16 16 16 16 16 15 15
18 18 19 18 18 18 17 15 15 14 14 14 14 14 14 14 14 13 13 13 13 13 13 13 13 14 14 14 14 14 14 14 14 14 14 14 14 14 14 14 15 15 16 16 16 16 16 15 15
19 18 18 17 16 16 16 14 12 12 12 13 13 13 12 12 13 13 13 13 13 13 13 13 13 13 13 13 13 13 13 13 13 13 13 13 13 14 14 14 15 15 16 16 16 16 15 15 15
17 17 17 17 16 14 13 12 11 11 11 11 11 11 11 12 12 12 12 13 13 13 13 13 13 13 13 13 13 13 13 13 13 13 13 13 14 14 14 15 15 15 16 16 16 15 15 15 15
18 17 16 15 14 14 12 11 11 10 10 10 11 11 11 11 12 12 12 12 13 13 13 13 13 13 13 13 13 13 13 14 14 14 14 14 15 15 15 15 16 16 16 16 16 15 15 15 15
Wind_Speed
15 13 9 4 4 1 11 8 8 8 10 10 9 8 16 15 9 6 6 12 19 19 18 17 17 15 14 13 11 11 10 10 11 11 11 11 10 10 10 9 9 9 9 8 7 6 6 6 6
13 8 4 4 3 6 9 7 9 10 9 6 7 12 17 14 12 9 8 14 19 19 18 17 17 16 14 13 11 10 10 10 11 11 11 11 10 10 9 9 9 9 9 9 8 7 6 6 6
13 10 4 3 1 8 9 7 8 9 7 7 6 12 13 8 10 10 11 17 18 17 17 19 18 15 14 12 11 11 10 10 10 11 11 10 10 10 10 10 9 9 9 9 8 7 6 6 6
7 5 4 1 5 9 7 7 6 6 4 6 5 9 12 10 8 13 15 17 18 17 18 19 17 15 14 12 11 11 11 10 11 10 10 10 9 9 10 10 10 10 9 9 8 7 7 6 6
5 4 4 1 5 7 7 7 5 3 7 9 8 14 12 12 15 15 13 16 17 17 17 18 16 15 13 12 11 11 11 11 11 10 10 9 9 9 10 11 11 10 9 8 8 8 8 8 8
4 3 2 3 4 5 5 5 3 4 7 6 6 12 10 11 13 13 12 13 16 17 17 17 16 14 13 12 11 11 11 12 11 10 10 9 9 10 11 11 11 10 8 7 7 7 8 9 8
5 5 3 2 2 3 5 5 5 6 9 12 8 8 10 14 11 11 11 10 13 16 16 15 15 14 12 12 12 12 12 12 11 11 10 10 9 10 11 11 11 10 8 7 6 6 7 8 7
4 6 6 1 3 2 4 3 5 7 8 8 6 10 10 13 12 10 10 10 11 14 16 16 16 15 14 12 12 12 12 13 12 11 11 10 10 10 11 12 11 9 8 6 5 5 6 6 6
3 4 6 6 5 3 4 4 4 2 3 5 9 13 14 14 13 11 9 8 8 10 12 14 14 14 14 15 15 14 12 12 13 12 11 12 11 12 11 12 12 9 8 6 5 4 5 6 6
4 3 3 5 6 4 5 6 5 3 8 8 8 11 13 11 12 11 10 10 10 9 9 10 11 11 10 10 14 12 12 12 12 12 13 12 12 12 12 16 12 10 8 7 6 6 7 8 9
4 3 0 3 8 7 5 5 6 7 8 8 6 7 10 10 10 10 11 11 11 10 10 10 10 10 9 6 9 8 9 11 12 12 14 13 11 10 13 11 10 10 10 9 9 9 10 12 10
5 5 5 6 7 5 6 4 5 9 6 7 7 2 8 9 9 9 10 10 11 11 11 11 11 11 9 7 6 6 5 6 7 11 14 12 6 7 10 9 12 11 10 10 10 9 12 9 8
6 5 3 4 4 5 5 4 1 6 7 8 7 4 3 6 6 7 8 9 11 11 11 12 12 12 10 8 6 7 6 6 9 11 13 12 4 5 4 6 10 10 10 7 5 6 4 1 3
5 6 7 8 7 6 4 4 1 6 6 6 7 7 7 4 1 4 4 5 8 11 11 10 11 11 11 10 8 6 6 7 8 8 10 12 8 4 3 4 5 5 7 9 6 3 4 2 3
7 10 12 11 10 4 3 2 5 4 4 6 8 9 9 7 5 3 3 2 2 7 9 11 11 10 12 13 11 7 6 8 5 6 10 10 10 6 4 4 6 3 6 8 4 2 2 3 4
12 12 11 7 4 2 5 3 5 3 4 5 6 6 5 5 5 8 10 9 7 2 4 9 11 10 10 9 10 8 6 6 5 7 7 8 10 9 5 3 4 4 5 3 3 1 1 3 2
9 7 5 5 7 6 5 1 4 3 2 3 5 6 6 7 9 10 9 9 9 8 4 5 10 10 9 9 7 7 6 6 5 6 5 5 7 8 5 3 2 4 2 2 4 2 1 1 1
11 11 8 3 1 6 10 4 5 4 4 4 5 5 7 10 12 13 12 10 8 8 9 6 7 10 9 8 7 6 5 7 5 4 4 5 4 6 6 3 2 2 3 1 1 3 2 2 1
14 14 15 10 3 6 10 6 3 5 3 3 5 7 9 11 12 14 14 14 12 11 10 9 6 8 8 8 8 7 6 6 6 5 5 6 4 4 6 4 3 1 3 2 1 1 1 1 1
12 14 14 12 10 9 10 11 3 5 5 5 6 8 11 11 12 13 14 14 15 15 15 14 11 6 8 8 10 9 8 6 6 5 5 6 5 4 4 5 4 3 2 2 2 1 2 1 2
13 13 14 14 15 13 14 14 10 7 8 8 7 9 11 11 11 12 12 13 13 14 16 15 16 13 6 7 8 8 8 7 6 6 5 5 5 4 4 4 4 4 4 4 4 4 5 5 4
13 15 16 16 15 13 14 12 5 7 10 11 10 10 11 10 10 10 10 12 13 14 14 15 16 16 11 4 7 10 8 8 7 6 5 5 4 3 4 3 3 3 3 4 5 6 5 6 5
13 15 18 19 16 16 16 14 3 9 12 12 12 12 11 11 10 10 11 12 13 13 13 13 13 13 13 8 1 5 6 6 5 6 7 5 4 3 3 2 2 2 2 4 5 6 6 5 6
14 16 18 15 12 12 10 10 4 9 12 13 14 14 14 13 12 12 12 12 12 12 12 12 12 12 12 11 8 6 7 8 8 7 7 4 3 3 3 3 2 1 1 3 4 5 4 4 5
16 13 7 6 3 3 7 5 7 12 15 16 17 16 16 15 13 13 13 13 13 13 12 11 11 11 11 11 11 9 7 7 6 6 6 5 3 2 3 2 2 1 1 2 2 2 3 4 5
13 12 8 6 7 8 5 5 6 13 15 16 16 16 17 16 13 13 13 12 12 12 12 11 10 10 9 9 9 9 8 6 5 5 5 4 3 2 2 3 3 3 2 2 2 1 4 3 4
11 10 10 8 10 6 3 4 5 16 19 19 19 18 18 16 14 13 12 12 12 12 12 10 9 9 9 8 8 7 6 6 6 5 4 3 2 1 1 3 4 4 5 4 3 3 4 2 1
11 10 6 7 7 6 5 5 9 20 21 21 19 19 18 17 14 13 12 12 11 10 9 10 9 9 8 7 6 6 6 6 5 4 3 2 0 1 2 5 7 7 7 6 4 2 1 1 1
13 13 9 6 5 5 6 4 10 15 17 18 17 16 16 15 14 13 12 11 10 9 9 8 8 8 8 8 7 6 5 4 2 1 1 2 3 4 5 7 7 7 7 7 6 4 3 3 4
12 12 10 5 5 5 3 4 12 13 14 14 14 14 13 13 13 12 11 11 11 11 10 9 8 7 7 6 6 6 6 5 4 3 3 3 4 4 6 6 6 6 5 6 7 7 5 4 5
Wind_Direction
285 254 242 265 272 121 73 68 65 43 52 48 37 42 67 56 44 77 146 152 126 127 134 142 141 139 135 130 127 124 123 124 121 118 115 112 110 108 106 104 103 103 101 98 96 97 102 115 129
291 285 261 247 290 79 78 71 73 61 48 35 38 34 61 62 78 104 148 126 127 129 140 143 143 142 140 139 137 134 132 130 126 123 119 117 115 112 109 103 102 103 103 101 97 97 103 115 126
269 274 265 269 19 77 85 79 79 75 48 30 40 62 54 42 81 123 131 132 132 134 141 138 147 146 147 148 148 145 141 137 133 129 125 121 119 116 111 104 99 99 98 96 93 93 99 112 125
288 277 238 293 75 77 83 94 84 90 87 58 38 74 69 47 68 114 135 143 132 134 133 141 151 152 155 158 156 154 149 146 140 137 132 128 126 121 116 109 101 96 93 89 85 86 93 105 117
263 270 301 317 87 87 79 72 74 75 70 55 56 86 81 72 91 117 147 142 136 136 134 145 152 156 160 163 162 161 157 154 150 146 142 139 135 130 123 117 109 100 92 85 79 81 88 95 105
299 282 351 345 66 74 90 90 73 58 63 65 66 92 94 105 110 133 148 143 143 138 138 145 154 159 163 166 168 168 166 161 158 156 151 147 144 138 133 127 118 108 98 88 79 80 90 97 101
321 302 253 197 87 70 57 32 38 47 54 45 33 85 111 109 115 137 143 149 143 140 140 148 159 163 167 171 175 175 172 167 164 161 156 153 149 144 141 134 127 120 111 100 88 85 96 105 107
312 295 314 33 86 43 35 19 44 22 59 52 35 66 111 119 134 139 143 148 144 148 149 157 164 169 171 174 178 179 177 173 169 165 162 157 154 153 152 147 138 132 126 117 108 104 113 124 132
270 284 353 350 54 24 360 0 43 25 33 59 70 73 101 122 134 139 138 147 157 159 157 161 165 169 173 173 174 177 181 179 171 170 169 167 175 173 174 160 147 147 144 142 143 152 162 165 177
248 315 24 316 24 26 356 2 349 15 41 35 72 99 115 135 143 150 157 166 169 167 162 156 158 160 168 172 159 175 180 177 184 180 177 193 205 191 168 148 156 160 164 170 182 197 209 206 204
290 317 341 347 26 358 347 359 4 29 45 7 17 114 136 148 157 163 173 178 171 173 168 164 164 164 162 157 158 173 172 172 194 186 185 201 209 173 140 156 158 174 185 196 195 212 225 219 209
296 317 335 357 11 332 326 343 18 36 28 348 352 74 151 165 175 178 182 177 169 173 173 175 170 172 170 165 156 157 166 174 184 193 198 200 198 187 167 170 173 182 198 205 189 215 223 220 184
288 297 311 307 294 286 293 297 59 41 5 350 350 359 131 162 179 186 189 175 172 169 174 182 177 178 175 159 160 168 168 175 189 198 208 195 181 198 176 170 168 185 190 179 230 234 191 128 67
308 319 291 275 268 263 266 289 40 41 356 358 2 16 40 62 147 193 201 187 177 168 178 176 178 177 168 160 177 174 170 174 188 193 212 193 179 188 157 176 156 192 172 171 220 234 123 130 93
279 272 266 252 246 244 271 280 69 35 5 12 15 31 25 19 357 355 2 335 201 171 176 169 174 178 174 172 180 168 171 174 184 192 213 189 176 176 162 190 156 193 180 179 215 187 123 125 125
264 261 265 278 245 223 258 208 93 29 19 21 11 21 16 10 359 19 15 357 348 325 195 174 174 179 176 164 167 164 178 170 174 181 205 193 172 180 170 173 155 179 173 165 120 46 103 128 168
284 288 312 5 5 333 293 148 146 118 41 26 21 8 10 10 21 19 10 348 339 327 292 188 176 179 177 163 163 163 174 159 156 167 182 192 175 178 148 133 123 158 133 139 150 184 175 140 151
322 317 305 280 173 283 277 227 159 103 60 29 23 12 19 22 16 10 1 350 334 316 302 269 193 180 180 166 168 162 158 154 154 155 168 181 168 149 122 115 116 114 116 105 109 134 97 53 28
310 302 301 302 225 244 273 274 173 124 82 31 26 25 29 23 12 14 2 356 347 337 319 299 249 197 185 172 170 165 164 159 156 158 158 157 144 126 120 130 146 125 130 148 192 117 110 53 339
312 311 306 309 325 313 297 288 245 144 126 77 35 23 30 19 8 11 5 4 0 355 347 335 323 273 213 187 179 176 168 164 152 146 140 144 152 157 150 157 156 147 136 172 220 166 160 210 238
329 328 331 323 318 303 292 280 259 178 121 93 59 40 32 19 10 7 3 1 0 358 351 343 336 325 283 209 186 175 159 154 145 149 148 153 161 164 151 149 157 178 179 195 216 216 202 210 231
318 330 323 308 298 288 285 284 293 108 74 45 33 34 30 19 9 7 5 2 2 1 354 350 348 345 334 278 199 178 164 159 154 147 138 132 125 131 140 138 145 169 186 201 218 221 215 209 224
316 314 299 286 279 278 276 274 313 55 42 19 7 16 20 14 6 8 12 10 10 7 2 358 1 3 3 6 40 152 140 127 117 119 121 112 93 90 102 102 120 154 190 215 223 228 214 204 214
324 311 294 272 255 261 286 287 44 28 16 4 360 5 9 7 8 17 18 16 14 12 11 9 15 20 24 31 41 75 108 116 118 116 116 106 95 79 81 96 106 139 216 241 242 232 214 207 219
343 338 333 341 327 309 356 16 50 13 11 3 354 360 5 7 9 18 20 18 16 14 16 18 26 32 35 46 51 59 78 98 112 116 118 120 111 114 129 126 137 186 261 279 287 279 251 222 224
347 355 356 330 328 323 355 69 53 10 5 359 354 360 4 7 16 23 24 23 18 16 18 21 29 35 41 54 60 60 65 72 86 91 101 103 106 114 145 163 181 205 229 255 254 298 281 258 241
359 1 335 313 308 312 54 86 38 4 1 357 356 0 3 4 14 24 25 23 18 16 18 22 31 38 42 53 60 64 70 77 81 80 81 82 78 93 166 212 213 219 219 225 234 209 258 241 284
19 357 348 349 343 337 21 47 2 352 351 349 354 358 0 3 11 21 22 20 15 13 14 24 33 41 41 47 53 66 70 74 80 78 71 68 338 250 219 225 223 219 207 203 211 223 276 340 239
18 14 1 342 8 353 345 35 11 350 345 345 351 359 1 5 11 16 15 11 12 11 14 18 23 31 33 34 37 45 53 63 75 92 168 228 242 238 232 235 233 222 203 191 183 198 227 242 261
35 17 8 11 14 5 350 22 8 349 348 353 359 5 7 10 12 10 10 13 15 17 19 20 22 23 23 25 27 26 24 21 13 352 325 304 289 274 259 256 249 244 203 184 174 187 202 221 253
Height
1492 1492 1493 1495 1495 1495 1497 1493 1488 1487 1486 1487 1486 1484 1487 1494 1500 1512 1510 1511 1512 1512 1515 1518 1521 1523 1526 1528 1531 1533 1534 1535 1537 1538 1539 1540 1541 1542 1543 1544 1545 1546 1547 1548 1549 1550 1551 1551 1552
1493 1495 1496 1496 1498 1504 1503 1492 1490 1489 1489 1489 1488 1488 1489 1497 1502 1507 1510 1512 1512 1513 1516 1519 1522 1524 1527 1529 1531 1533 1535 1536 1538 1539 1540 1541 1542 1543 1544 1545 1546 1547 1548 1548 1549 1550 1551 1552 1553
1494 1495 1496 1494 1497 1501 1501 1491 1489 1490 1491 1490 1490 1491 1496 1501 1503 1507 1510 1512 1514 1515 1518 1520 1523 1525 1528 1530 1532 1534 1536 1537 1538 1540 1541 1542 1543 1544 1546 1547 1547 1548 1549 1549 1550 1551 1551 1552 1553
1497 1497 1494 1497 1498 1491 1490 1488 1488 1490 1490 1491 1491 1494 1500 1504 1505 1507 1510 1513 1515 1517 1519 1521 1524 1526 1528 1530 1533 1535 1536 1538 1539 1541 1542 1543 1544 1545 1546 1547 1548 1549 1549 1550 1551 1551 1552 1553 1554
1499 1497 1496 1500 1494 1487 1486 1487 1489 1489 1489 1491 1493 1496 1502 1506 1507 1509 1511 1515 1516 1519 1520 1523 1525 1527 1529 1531 1533 1535 1537 1538 1540 1541 1543 1544 1545 1546 1547 1548 1549 1549 1550 1551 1551 1552 1553 1554 1555
1500 1496 1507 1511 1496 1488 1486 1488 1489 1489 1490 1490 1492 1496 1504 1507 1508 1511 1514 1516 1518 1519 1521 1523 1526 1528 1529 1531 1533 1535 1537 1539 1540 1542 1543 1544 1545 1546 1547 1548 1549 1550 1551 1551 1552 1553 1554 1554 1555
1502 1499 1505 1505 1498 1493 1488 1489 1489 1490 1491 1493 1495 1497 1504 1507 1510 1512 1515 1517 1519 1521 1522 1524 1526 1528 1530 1531 1533 1535 1537 1539 1540 1542 1543 1544 1545 1546 1547 1548 1549 1550 1551 1552 1553 1554 1555 1555 1556
1502 1500 1499 1498 1499 1498 1491 1490 1491 1492 1493 1496 1497 1499 1504 1508 1511 1513 1516 1518 1521 1522 1523 1524 1526 1528 1530 1532 1533 1535 1537 1539 1540 1542 1543 1545 1546 1547 1548 1548 1549 1550 1551 1552 1553 1554 1555 1556 1557
1502 1503 1510 1504 1499 1500 1493 1492 1493 1495 1495 1497 1498 1502 1505 1508 1511 1514 1517 1519 1522 1523 1524 1525 1527 1528 1530 1531 1533 1535 1536 1538 1540 1542 1543 1545 1546 1547 1548 1549 1550 1551 1552 1553 1554 1555 1556 1557 1558
1501 1506 1510 1502 1496 1498 1495 1495 1495 1495 1497 1499 1501 1503 1506 1509 1512 1514 1517 1519 1521 1523 1525 1527 1528 1529 1531 1533 1533 1535 1536 1538 1539 1541 1543 1545 1546 1548 1549 1549 1550 1551 1552 1553 1554 1555 1556 1558 1559
1499 1501 1501 1499 1497 1498 1497 1497 1498 1498 1502 1504 1503 1504 1506 1509 1512 1514 1516 1518 1520 1522 1524 1526 1528 1529 1531 1532 1533 1535 1536 1537 1539 1541 1543 1545 1546 1548 1549 1550 1551 1551 1552 1553 1555 1556 1557 1557 1559
1500 1499 1499 1499 1501 1500 1499 1499 1501 1502 1505 1505 1504 1504 1505 1508 1510 1512 1514 1516 1518 1520 1523 1525 1526 1528 1530 1532 1533 1534 1535 1536 1538 1540 1542 1544 1546 1548 1549 1549 1550 1551 1552 1553 1555 1556 1557 1559 1561
1500 1500 1500 1500 1501 1501 1501 1500 1501 1504 1505 1504 1504 1504 1504 1506 1509 1511 1513 1514 1516 1518 1521 1523 1525 1527 1528 1530 1532 1533 1534 1535 1537 1539 1541 1544 1546 1548 1550 1550 1550 1551 1552 1554 1556 1556 1559 1560 1561
1500 1501 1500 1500 1499 1499 1499 1500 1501 1505 1506 1505 1505 1504 1504 1506 1508 1510 1512 1513 1515 1516 1519 1521 1523 1525 1526 1528 1530 1532 1532 1534 1536 1538 1540 1543 1545 1547 1549 1551 1550 1552 1553 1555 1556 1557 1558 1559 1560
1500 1499 1497 1495 1495 1496 1498 1502 1504 1506 1506 1506 1506 1506 1506 1507 1508 1509 1510 1512 1513 1515 1516 1518 1521 1523 1524 1525 1527 1529 1531 1532 1534 1536 1539 1541 1543 1545 1547 1549 1549 1551 1553 1554 1556 1557 1558 1558 1559
1495 1497 1500 1494 1493 1495 1501 1508 1506 1507 1507 1507 1508 1508 1508 1508 1509 1509 1509 1510 1511 1513 1514 1516 1517 1520 1522 1524 1525 1527 1529 1531 1532 1534 1537 1539 1541 1543 1545 1547 1548 1550 1552 1553 1554 1556 1557 1558 1558
1497 1505 1506 1503 1501 1501 1503 1508 1505 1506 1506 1507 1508 1509 1509 1509 1509 1509 1509 1509 1509 1510 1512 1513 1514 1516 1519 1521 1523 1525 1527 1528 1530 1532 1534 1537 1539 1541 1543 1545 1547 1548 1550 1551 1553 1554 1556 1557 1557
1510 1506 1505 1507 1507 1510 1507 1504 1502 1504 1506 1507 1509 1509 1510 1510 1511 1510 1509 1509 1509 1509 1510 1511 1511 1512 1515 1517 1519 1521 1524 1525 1526 1529 1531 1534 1536 1538 1540 1542 1544 1546 1548 1549 1551 1553 1554 1555 1555
1505 1506 1505 1501 1499 1503 1503 1501 1501 1503 1506 1508 1509 1510 1511 1512 1512 1511 1509 1508 1507 1507 1507 1508 1509 1508 1510 1512 1513 1515 1517 1520 1522 1525 1527 1530 1532 1534 1536 1538 1541 1543 1545 1547 1549 1550 1551 1552 1554
1505 1509 1507 1501 1498 1501 1502 1501 1498 1501 1506 1510 1512 1513 1513 1514 1514 1512 1510 1508 1506 1504 1503 1503 1504 1505 1505 1505 1506 1508 1511 1514 1517 1520 1523 1525 1528 1530 1532 1535 1537 1540 1542 1544 1546 1547 1548 1550 1551
1514 1515 1514 1513 1506 1503 1505 1506 1500 1500 1505 1511 1513 1515 1515 1516 1515 1513 1511 1509 1507 1504 1502 1500 1499 1499 1500 1500 1500 1500 1502 1508 1511 1515 1518 1521 1524 1527 1529 1531 1533 1536 1538 1540 1542 1544 1545 1546 1547
1523 1515 1515 1514 1516 1515 1510 1517 1504 1503 1511 1516 1517 1517 1517 1517 1516 1514 1512 1509 1507 1504 1501 1498 1496 1494 1494 1495 1495 1493 1493 1498 1503 1508 1513 1516 1519 1522 1525 1527 1529 1531 1534 1536 1537 1539 1541 1542 1543
1521 1517 1515 1513 1514 1516 1511 1515 1516 1514 1524 1525 1523 1520 1519 1518 1516 1514 1512 1509 1507 1503 1500 1497 1494 1492 1491 1491 1492 1491 1492 1493 1498 1503 1507 1510 1514 1517 1520 1523 1524 1526 1529 1531 1533 1535 1536 1538 1539
1518 1514 1508 1502 1508 1521 1516 1518 1530 1533 1534 1530 1526 1522 1520 1518 1516 1514 1512 1509 1506 1503 1500 1497 1494 1492 1490 1489 1490 1491 1492 1493 1496 1499 1502 1505 1509 1513 1516 1519 1521 1523 1525 1528 1530 1531 1534 1535 1536
1522 1524 1524 1522 1523 1527 1521 1529 1548 1541 1537 1535 1531 1525 1522 1520 1517 1515 1512 1509 1506 1503 1500 1497 1495 1493 1491 1490 1490 1491 1492 1494 1496 1497 1500 1502 1505 1509 1512 1516 1518 1521 1522 1525 1527 1530 1531 1533 1533
1530 1529 1540 1546 1539 1531 1524 1541 1551 1546 1542 1539 1534 1529 1525 1522 1519 1517 1514 1511 1508 1505 1502 1499 1497 1495 1493 1492 1492 1492 1493 1495 1496 1497 1498 1501 1504 1507 1510 1513 1516 1518 1520 1523 1525 1527 1529 1530 1531
1538 1538 1534 1537 1533 1533 1537 1546 1546 1547 1545 1542 1537 1532 1528 1525 1522 1519 1516 1513 1510 1507 1504 1502 1500 1497 1496 1495 1494 1495 1495 1496 1497 1498 1500 1502 1504 1506 1509 1511 1514 1516 1519 1521 1523 1525 1526 1528 1528
1543 1541 1539 1544 1549 1548 1546 1554 1562 1555 1551 1546 1540 1535 1531 1527 1524 1521 1519 1516 1513 1511 1508 1505 1503 1501 1500 1498 1498 1498 1498 1498 1499 1500 1502 1503 1505 1507 1509 1511 1514 1516 1518 1519 1521 1523 1524 1525 1526
1549 1548 1547 1545 1548 1560 1563 1568 1566 1563 1557 1550 1544 1539 1534 1531 1527 1524 1521 1519 1516 1513 1511 1508 1506 1505 1503 1502 1502 1502 1502 1502 1503 1504 1505 1506 1507 1509 1510 1512 1513 1515 1516 1518 1519 1521 1522 1523 1523
1551 1552 1552 1559 1563 1563 1569 1576 1569 1565 1559 1553 1547 1542 1538 1534 1531 1527 1524 1521 1518 1515 1513 1510 1509 1508 1507 1506 1506 1506 1506 1506 1506 1507 1508 1508 1509 1510 1511 1512 1513 1514 1515 1517 1518 1519 1520 1521 1522